Weather History for KLNK - November, 2012

Change the Weather History Date:

Saturday, November 10, 2012

  Actual Average Record
Temperature  
Mean Temperature 60 °F 42 °F  
Max Temperature 78 °F 54 °F 79 °F (1927)
Min Temperature 41 °F 30 °F 4 °F (1986)
Degree Days  
Heating Degree Days 5 23  
Month to date heating degree days 178 207  
Since 1 July heating degree days 760 686  
Cooling Degree Days 0 0  
Month to date cooling degree days 0 0  
Year to date cooling degree days 1491 1173  
Growing Degree Days 10 (Base 50)    
Moisture  
Dew Point 52 °F    
Average Humidity 66    
Maximum Humidity 84    
Minimum Humidity 47    
Precipitation  
Precipitation 0.07 in 0.05 in 1.83 in (1915)
Month to date precipitation 0.15 0.54  
Year to date precipitation 17.64 27.11  
Snow  
Snow 0.00 in 0.00 in - ()
Month to date snowfall 0.0 0.4  
Since 1 July snowfall 0.0 1.1  
Snow Depth 0.00 in    
Sea Level Pressure  
Sea Level Pressure 29.55 in    
Wind  
Wind Speed 22 mph (SSW)    
Max Wind Speed 48 mph    
Max Gust Speed 66 mph    
Visibility 9 miles    
Events Rain , Thunderstorm    
T = Trace of Precipitation, MM = Missing Value Source: NWS Daily Summary

Daily Weather History Graph

Daily Weather History Graph

Search for Another Location

Airport or City:

Trip Planner

Search our weather history database for the weather conditions in past years. The results will help you decide how hot, cold, wet, or windy it might be!

Date:

Astronomy

Nov. 10, 2012 Rise Set
Actual Time 7:08 AM CST 5:12 PM CST
Civil Twilight 6:39 AM CST 5:41 PM CST
Nautical Twilight 6:06 AM CST 6:14 PM CST
Astronomical Twilight 5:34 AM CST 6:46 PM CST
Moon 3:13 AM CST (11/10) 3:01 PM CST (11/10)
Length of Visible Light 11h 02m
Length of Day
10h 03m
Waning Crescent, 14% of the Moon is Illuminated
Nov 10
Waning Crescent
Nov 13
New
Nov 20
First Quarter
Nov 28
Full
Dec 6
Last Quarter

Hourly Weather History & Observations

Time (CST) Temp. Windchill Dew Point Humidity Pressure Visibility Wind Dir Wind Speed Gust Speed Precip Events Conditions
12:54 AM 63.0 °F - 57.0 °F 81% 29.59 in 10.0 mi South 16.1 mph - N/A   Clear
1:54 AM 64.0 °F - 57.0 °F 78% 29.56 in 10.0 mi South 19.6 mph 27.6 mph N/A   Clear
2:54 AM 63.0 °F - 55.9 °F 78% 29.55 in 10.0 mi South 16.1 mph - N/A   Clear
3:54 AM 63.0 °F - 55.0 °F 75% 29.55 in 10.0 mi South 15.0 mph - N/A   Clear
4:54 AM 64.0 °F - 54.0 °F 70% 29.55 in 10.0 mi South 16.1 mph - N/A   Clear
5:54 AM 63.0 °F - 54.0 °F 72% 29.56 in 10.0 mi South 17.3 mph 25.3 mph N/A   Clear
6:54 AM 63.0 °F - 53.1 °F 70% 29.58 in 10.0 mi SSW 16.1 mph - N/A   Clear
7:54 AM 62.1 °F - 52.0 °F 70% 29.60 in 10.0 mi South 12.7 mph - N/A   Clear
8:54 AM 66.0 °F - 52.0 °F 60% 29.59 in 10.0 mi SSW 18.4 mph 26.5 mph N/A   Clear
9:54 AM 70.0 °F - 52.0 °F 53% 29.59 in 10.0 mi SSW 18.4 mph 28.8 mph N/A   Clear
10:54 AM 71.1 °F - 53.1 °F 53% 29.57 in 10.0 mi South 21.9 mph 29.9 mph N/A   Clear
11:54 AM 73.9 °F - 54.0 °F 50% 29.54 in 10.0 mi SSW 25.3 mph 38.0 mph N/A   Scattered Clouds
12:54 PM 75.9 °F - 55.0 °F 48% 29.50 in 10.0 mi South 26.5 mph 38.0 mph N/A   Clear
1:54 PM 77.0 °F - 55.0 °F 47% 29.47 in 9.0 mi South 35.7 mph 41.4 mph N/A   Clear
2:54 PM 75.0 °F - 55.0 °F 50% 29.47 in 9.0 mi South 28.8 mph 41.4 mph N/A   Clear
3:54 PM 73.9 °F - 55.9 °F 53% 29.47 in 8.0 mi South 32.2 mph 44.9 mph N/A   Clear
4:54 PM 71.1 °F - 55.0 °F 57% 29.47 in 8.0 mi South 28.8 mph 42.6 mph N/A   Clear
5:54 PM 68.0 °F - 55.9 °F 65% 29.46 in 10.0 mi SSE 23.0 mph 33.4 mph N/A   Clear
6:54 PM 68.0 °F - 55.9 °F 65% 29.43 in 10.0 mi South 26.5 mph 40.3 mph N/A   Clear
7:54 PM 69.1 °F - 55.0 °F 61% 29.43 in 10.0 mi South 31.1 mph 42.6 mph N/A   Clear
8:51 PM 62.6 °F - 55.4 °F 77% 29.45 in 4.0 mi South 46.0 mph 62.1 mph 0.00 in Thunderstorm Unknown
8:54 PM 63.0 °F - 54.0 °F 72% 29.45 in 4.0 mi South 44.9 mph 58.7 mph 0.00 in Thunderstorm Unknown
9:09 PM 55.4 °F - 51.8 °F 88% 29.57 in 6.0 mi West 17.3 mph 32.2 mph 0.01 in Rain Rain
9:54 PM 48.2 °F - 46.4 °F 93% 29.62 in 9.0 mi NNW 8.1 mph - N/A   Mostly Cloudy
10:22 PM 48.2 °F - 46.4 °F 93% 29.65 in 6.0 mi NW 10.4 mph - 0.01 in Rain Light Rain
10:45 PM 44.6 °F 36.6 °F 42.8 °F 93% 29.67 in 6.0 mi NW 19.6 mph 24.2 mph 0.04 in Rain Light Rain
10:54 PM 45.0 °F 38.2 °F 42.1 °F 90% 29.67 in 10.0 mi NW 15.0 mph - 0.05 in Rain Light Rain
11:54 PM 41.0 °F 32.2 °F 37.9 °F 89% 29.69 in 10.0 mi NNW 18.4 mph 27.6 mph 0.00 in   Overcast